User: anonymous   Login
Location: *
(37.5724°S, 58.0067°E)
Time: 00:45:21
(UTC+00:00)
Language:

H-2A ROCKET BODY - Orbit

View from above orbital plane
View from above orbital plane
View from above satellite
View from above satellite

Ground track
Ground track

The orbit data is extracted from the following two-line orbital elements,

1 29657U 06059B   21136.34680325  .00015705  00000-0  52669-3 0  9992
2 29657  28.6138 150.4876 5269148 240.2114  57.5391  5.27452679211370
Epoch (UTC): 16 May 2021 08:19:23
Eccentricity: 0.5269148
inclination: 28.6138°
perigee height: 217 km
apogee height: 14908 km
right ascension of ascending node: 150.4876°
argument of perigee: 240.2114°
revolutions per day: 5.27452679
mean anomaly at epoch: 57.5391°
orbit number at epoch: 21137

The dashed part of the orbit path shows where the satellite is in the earth's shadow,  

DLR